This demonstration page uses our WeatherBlox Daily Observations layout. Learn more.

Left ArrowRight Arrow

34.74481, -87.66753

Hourly Observations for June 22, 2020

Temp ( °F °C ) Dew Point ( °F °C ) Humidity (%) Winds ( mph kmh ) Pressure ( in mb ) Visibility ( mi km ) Precip ( " mm )
12:53 am 00:53 Partly Cloudy 76 24.4 68 20 77 77 W 9 15 29.96 1015 10 16 0.00 0.00
1:53 am 01:53 Clear 75 23.9 68 20 79 79 S 5 7 29.96 1015 10 16 0.00 0.00
2:53 am 02:53 Clear 73 22.8 68 20 84 84 NW 3 6 29.96 1015 10 16 0.00 0.00
3:53 am 03:53 Mostly Clear 72 22.2 68 20 87 87 Calm 29.95 1014 10 16 0.00 0.00
4:53 am 04:53 Cloudy 73 22.8 69 20.6 87 87 SE 5 7 29.96 1015 10 16 0.00 0.00
5:53 am 05:53 Cloudy 73 22.8 68 20 84 84 SSW 5 7 29.98 1015 10 16 0.00 0.00
6:53 am 06:53 Partly Cloudy 74 23.3 68 20 82 82 S 5 7 29.98 1015 10 16 0.00 0.00
7:53 am 07:53 Mostly Cloudy 77 25 68 20 74 74 VRB 5 7 30.00 1016 10 16 0.00 0.00
8:53 am 08:53 Partly Cloudy 80 26.7 65 18.3 60 60 S 7 11 30.00 1016 10 16 0.00 0.00
9:53 am 09:53 Mostly Cloudy 79 26.1 66 18.9 65 65 S 8 13 30.00 1016 10 16 0.00 0.00
10:29 am 10:29 Mostly Cloudy with Heavy Rain 77 25 68 20 74 74 SW 13 20 30.01 1016 2 2 0.08 2.03
10:38 am 10:38 Mostly Cloudy with Light Rain 75 23.9 70 21.1 84 84 SSW 16 26 30.01 1016 3 5 0.08 2.03
10:53 am 10:53 Mostly Cloudy with Light Rain 75 23.9 69 20.6 82 82 SSW 7 11 30.01 1016 8 13 0.10 2.54
11:30 am 11:30 Partly Cloudy with Heavy Rain 76 24.4 70 21.1 82 82 SW 9 15 30.01 1016 2 2 0.08 2.03
11:39 am 11:39 Mostly Cloudy with Light Rain 75 23.9 71 21.7 88 88 SSE 8 13 30.00 1016 1 1 0.18 4.57
11:43 am 11:43 Mostly Cloudy with Light Rain 75 23.9 71 21.7 88 88 SE 9 15 30.00 1016 2 3 0.18 4.57
11:50 am 11:50 Cloudy with Light Rain 75 24 72 22 89 89 SSE 10 17 30.00 1016 10 16 0.18 4.57
11:53 am 11:53 Mostly Cloudy with Light Rain 76 24.4 72 22.2 88 88 SSE 10 17 30.00 1016 10 16 0.18 4.57
12:53 pm 12:53 Sunny 84 28.9 73 22.8 70 70 SSW 12 19 29.96 1015 10 16 0.00 0.00
1:53 pm 13:53 Mostly Sunny 86 30 70 21.1 59 59 SW 9 15 29.93 1014 10 16 0.00 0.00
2:53 pm 14:53 Partly Cloudy 87 30.6 70 21.1 57 57 SW 9 15 29.91 1013 10 16 0.00 0.00
3:53 pm 15:53 Partly Cloudy 88 31.1 71 21.7 57 57 SSW 8 13 29.89 1012 10 16 0.00 0.00
4:33 pm 16:33 Mostly Cloudy with Nearby Thunderstorms 85 29.4 69 20.6 59 59 S 14 22 29.88 1012 10 16 0.00 0.00
4:43 pm 16:43 Mostly Cloudy with Light Rain 81 27.2 70 21.1 69 69 SW 31 50 29.90 1013 2 2 0.09 2.29
4:48 pm 16:48 Cloudy with Strong Thunderstorms 73 23 68 20 83 83 SSW 23 37 29.93 1014 0 0 0.33 8.38
4:53 pm 16:53 Mostly Cloudy with Strong Thunderstorms 73 22.8 69 20.6 87 87 WSW 22 35 29.93 1014 0 0 0.53 13.46
5:02 pm 17:02 Mostly Cloudy with Strong Thunderstorms 72 22.2 69 20.6 91 91 WSW 14 22 29.92 1013 1 2 0.10 2.54
5:12 pm 17:12 Mostly Cloudy with Thunderstorms 73 22.8 69 20.6 87 87 SW 8 13 29.92 1013 3 4 0.14 3.56
5:17 pm 17:17 Mostly Cloudy with Rain 73 22.8 69 20.6 87 87 SSW 8 13 29.92 1013 4 6 0.15 3.81
5:53 pm 17:53 Partly Cloudy with Rain 73 22.8 70 21.1 90 90 SSW 6 9 29.91 1013 4 6 0.22 5.59
6:53 pm 18:53 Partly Cloudy 73 22.8 70 21.1 90 90 SE 5 7 29.88 1012 10 16 0.06 1.52
7:53 pm 19:53 Partly Cloudy 73 22.8 70 21.1 90 90 S 6 9 29.90 1012 10 16 0.00 0.00
8:53 pm 20:53 Mostly Clear 73 22.8 70 21.1 90 90 S 8 13 29.89 1012 10 16 0.00 0.00
9:53 pm 21:53 Mostly Cloudy 73 22.8 70 21.1 90 90 S 6 9 29.89 1012 10 16 0.00 0.00
10:53 pm 22:53 Cloudy 73 22.8 70 21.1 90 90 SSE 6 9 29.89 1012 10 16 0.00 0.00
11:53 pm 23:53 Mostly Cloudy 73 22.8 70 21.1 90 90 SSW 9 15 29.88 1012 10 16 0.00 0.00
11:57 pm 23:57 Mostly Cloudy with Light Rain 73 22.8 70 21.1 90 90 S 10 17 29.88 1012 2 3 0.17 4.32

Powered by AerisWeather